This is the latest recevied weather packets stored in our database for station/object M0HPP-13. If no packets are shown the sender has not sent any weather packets the latest 10 day(s).
| Time | Temp. | Humidity | Pressure | Rain* | Wind** | Luminosity | Snow |
|---|---|---|---|---|---|---|---|
| 1787785686 | 13.89° C | 99% | 1017.7 hPa | 0 mm | - | 0 W/m² | - |
| 1787785086 | 13.89° C | 99% | 1017.7 hPa | 0 mm | - | 0 W/m² | - |
| 1787784486 | 13.89° C | 99% | 1017.9 hPa | 0 mm | - | 0 W/m² | - |
| 1787783886 | 13.89° C | 99% | 1017.9 hPa | 0 mm | - | 0 W/m² | - |
| 1787783286 | 13.89° C | 99% | 1017.8 hPa | 0 mm | - | 0 W/m² | - |
| 1787782686 | 14.44° C | 99% | 1017.8 hPa | 0 mm | - | 0 W/m² | - |
| 1787782086 | 14.44° C | 99% | 1017.6 hPa | 0 mm | - | 0 W/m² | - |
| 1787781486 | 14.44° C | 99% | 1017.7 hPa | 0 mm | - | 0 W/m² | - |
| 1787780886 | 14.44° C | 99% | 1017.8 hPa | 0 mm | - | 0 W/m² | - |
| 1787780286 | 14.44° C | 99% | 1018 hPa | 0 mm | - | 0 W/m² | - |
| 1787779686 | 14.44° C | 98% | 1017.9 hPa | 0 mm | - | 0 W/m² | - |
| 1787779086 | 14.44° C | 98% | 1017.9 hPa | 0 mm | - | 0 W/m² | - |
| 1787778486 | 14.44° C | 98% | 1017.9 hPa | 0 mm | - | 0 W/m² | - |
| 1787776686 | 14.44° C | 98% | 1017.9 hPa | 0 mm | - | 0 W/m² | - |
| 1787776086 | 14.44° C | 97% | 1017.9 hPa | 0 mm | - | 0 W/m² | - |
| 1787775486 | 14.44° C | 97% | 1017.8 hPa | 0 mm | - | 0 W/m² | - |
| 1787774886 | 14.44° C | 97% | 1017.7 hPa | 0 mm | - | 0 W/m² | - |
| 1787774286 | 14.44° C | 97% | 1017.8 hPa | 0 mm | - | 1 W/m² | - |
| 1787773686 | 14.44° C | 97% | 1017.8 hPa | 0 mm | - | 2 W/m² | - |
| 1787773086 | 14.44° C | 97% | 1017.8 hPa | 0 mm | - | 3 W/m² | - |
| 1787772486 | 14.44° C | 96% | 1017.8 hPa | 0 mm | - | 6 W/m² | - |
| 1787771886 | 14.44° C | 96% | 1017.7 hPa | 0 mm | - | 11 W/m² | - |
| 1787771286 | 14.44° C | 95% | 1017.6 hPa | 0 mm | - | 18 W/m² | - |
| 1787770686 | 15° C | 95% | 1017.7 hPa | 0 mm | - | 27 W/m² | - |
| 1787770086 | 15° C | 94% | 1017.6 hPa | 0 mm | - | 40 W/m² | - |
* Rain latest hour (hover to see other rain measurements)
** Current wind speed in m/s (hover to see current wind gust speed)